Showing default

HULIANWANG DIGUI-14, 62974

Orbit data source: Space-Track

HULIANWANG DIGUI-14, 62974 is a payload satellite owned by Zhongguo Xingwang (CN) in LEO that was launched on Tue, 11 Feb 2025 UTC via a CHANG ZHENG 8A launch vehicle from the Wenchang Satellite Launch Center (WSC). Payload-class satellites include a variety of spacecraft equipped with specific instruments for various scientific and technological missions. These include communications satellites like Starlink; space stations such as the ISS; scientific satellites like the Hubble; Earth observation satellites from companies like Planet Labs, Umbra, and HawkEye 360; GPS; miniature CubeSats for education and research; and military/defense satellites.

Loading next visibility...
Identifier
62974, 2025-030D
Orbit
LEO
Last TLE update
16 hours ago
Origin
Manufacturer
CAST
Mission
Operational Civil Communications
Bus & Motor
HWHD, Unknown motor
Mass
~800 kg wet, ~800 kg dry
Launch date (UTC)
2025-02-11 (3 months ago)
Launch vehicle
CHANG ZHENG 8A
Launch site
Wenchang Satellite Launch Center (WSC)
Object type
Payload
Rocket body
Debris
Shape & HBR
Box + 2 Pan, 10 m
Radar Cross Section
5.935 m², Large (>1 m²)

Expand to show TLE details & history

TLE from 16 hours ago
0 HULIANWANG DIGUI-14
1 62974U 25030D   25128.62037153 -.00000067  00000-0  96610-4 0  9993
2 62974  50.0028 248.1922 0001172 141.4165 218.6802 13.54233778 12021
Epoch: 2025-05-08T14:53Z
Definitive object data (Epoch: 2025-05-08T14:53:20.1Z)
Latitude
0.00001°
Longitude
158.1702°
Altitude
1,057.915 km
Speed
7.324 km/s
True Right ascension
16h 32m 46s
True Declination
0° 00' 00"
Sunlit
Object was in full shadow at TLE epoch
Visualization TLE readout
Latitude
38.28044°
Longitude
-163.15516°
Altitude
1,059.657 km
Speed
7.327 km/s
Apparent Right ascension
22h 35m 02s
Apparent Declination
5° 33' 47"
Sunlit
Object is in daylight
Visualization observer readout
Local Sidereal Time
15:14:30
Azimuth
72.525° E
Elevation
-11.57°
Doppler factor
1
Orbital elements
Apogee altitude
1,058.307 km
Perigee altitude
1,056.564 km
Semi-major axis
7,435.573 km
Eccentricity
0.0001172
Inclination
50.0028°
RAAN
248.1922°
Arg. of periapsis
141.4165°
True anomaly
218.67181°
Mean anomaly
218.6802°
Eccentric anomaly
218.676°
Mean motion
3.3851 °/min
BSTAR
0.00009661
Orbital period
106.35 mins
Loading maneuver chart data...
Loading SW <> Apogee altitude chart data...
Loading historical data...
Loading historical data...
Loading historical data...
Loading historical data...
Loading historical data...
Loading historical data...
Loading historical data...

HULIANWANG DIGUI-14 Visibility forecast

Observer location: undefined°, undefined°

Span
Click to sort rows by Start time (UTC) header in descending order
Start Az.
Max El. time (UTC)
Max El. Az.
Max El.
End time (UTC)
End Az.
7 mins2025-05-09 08:43:34.137Z155.715° SSE2025-05-09 08:47:34.137Z119.138° SE14.658°2025-05-09 08:50:34.137Z92.477° ESE
11 mins2025-05-09 10:32:34.137Z217.464° SW2025-05-09 10:37:34.137Z141.802° SSE42.542°2025-05-09 10:43:34.137Z60.719° ENE
11 mins2025-05-09 12:24:34.137Z272.557° WNW2025-05-09 12:29:34.137Z344.447° N36.596°2025-05-09 12:35:34.137Z52.428° ENE
10 mins2025-05-09 14:17:34.137Z305.839° NW2025-05-09 14:22:34.137Z10.565° NNE30.196°2025-05-09 14:27:34.137Z64.669° ENE
11 mins2025-05-09 16:09:34.137Z310.669° NW2025-05-09 16:14:34.137Z18.797° NNE40.229°2025-05-09 16:20:34.137Z102.169° ESE
11 mins2025-05-09 18:01:34.137Z289.609° WNW2025-05-09 18:06:34.137Z215.119° SW36.508°2025-05-09 18:12:34.137Z152.986° SSE
|